Time,TemperatureF,DewpointF,PressureIn,WindDirection,WindDirectionDegrees,WindSpeedMPH,WindSpeedGustMPH,Humidity,HourlyPrecipIn,Conditions,Clouds,dailyrainin,SoftwareType,DateUTC
2013-03-22 00:01:00,13.0,4.0,-100.00,NW,310,0.0,0.0,66,-99.99,,,-99.99,,2013-03-22 05:01:00,
2013-03-22 00:22:00,13.0,4.0,-100.00,NW,310,0.0,0.0,66,-99.99,,,-99.99,,2013-03-22 05:22:00,
2013-03-22 00:32:00,13.0,4.0,-100.00,NW,310,0.0,0.0,66,-99.99,,,-99.99,,2013-03-22 05:32:00,
2013-03-22 00:42:00,13.0,4.0,-100.00,NW,310,0.0,0.0,66,-99.99,,,-99.99,,2013-03-22 05:42:00,
2013-03-22 00:52:00,13.0,4.0,-100.00,NW,310,0.0,0.0,66,-99.99,,,-99.99,,2013-03-22 05:52:00,
2013-03-22 01:01:00,11.0,4.0,-100.00,NW,315,0.0,0.0,71,-99.99,,,-99.99,,2013-03-22 06:01:00,
2013-03-22 01:22:00,11.0,4.0,-100.00,NW,315,0.0,0.0,71,-99.99,,,-99.99,,2013-03-22 06:22:00,
2013-03-22 01:32:00,11.0,4.0,-100.00,NW,315,0.0,0.0,71,-99.99,,,-99.99,,2013-03-22 06:32:00,
2013-03-22 01:43:00,11.0,4.0,-100.00,NW,315,0.0,0.0,71,-99.99,,,-99.99,,2013-03-22 06:43:00,
2013-03-22 01:52:00,11.0,4.0,-100.00,NW,315,0.0,0.0,71,-99.99,,,-99.99,,2013-03-22 06:52:00,
2013-03-22 02:01:00,6.0,0.0,-100.00,NW,315,0.0,0.0,74,-99.99,,,-99.99,,2013-03-22 07:01:00,
2013-03-22 02:22:00,6.0,0.0,-100.00,NW,315,0.0,0.0,74,-99.99,,,-99.99,,2013-03-22 07:22:00,
2013-03-22 02:32:00,6.0,0.0,-100.00,NW,315,0.0,0.0,74,-99.99,,,-99.99,,2013-03-22 07:32:00,
2013-03-22 02:42:00,6.0,0.0,-100.00,NW,315,0.0,0.0,74,-99.99,,,-99.99,,2013-03-22 07:42:00,
2013-03-22 02:52:00,6.0,0.0,-100.00,NW,315,0.0,0.0,74,-99.99,,,-99.99,,2013-03-22 07:52:00,
2013-03-22 03:01:00,4.0,-2.0,-100.00,NNW,330,0.0,0.0,78,-99.99,,,-99.99,,2013-03-22 08:01:00,
2013-03-22 03:22:00,4.0,-2.0,-100.00,NNW,330,0.0,0.0,78,-99.99,,,-99.99,,2013-03-22 08:22:00,
2013-03-22 03:32:00,4.0,-2.0,-100.00,NNW,330,0.0,0.0,78,-99.99,,,-99.99,,2013-03-22 08:32:00,
2013-03-22 03:42:00,4.0,-2.0,-100.00,NNW,330,0.0,0.0,78,-99.99,,,-99.99,,2013-03-22 08:42:00,
2013-03-22 03:52:00,4.0,-2.0,-100.00,NNW,330,0.0,0.0,78,-99.99,,,-99.99,,2013-03-22 08:52:00,
2013-03-22 04:01:00,2.0,-2.0,-100.00,NW,315,0.0,0.0,82,-99.99,,,-99.99,,2013-03-22 09:01:00,
2013-03-22 04:22:00,2.0,-2.0,-100.00,NW,315,0.0,0.0,82,-99.99,,,-99.99,,2013-03-22 09:22:00,
2013-03-22 04:33:00,2.0,-2.0,-100.00,NW,315,0.0,0.0,82,-99.99,,,-99.99,,2013-03-22 09:33:00,
2013-03-22 04:42:00,2.0,-2.0,-100.00,NW,315,0.0,0.0,82,-99.99,,,-99.99,,2013-03-22 09:42:00,
2013-03-22 04:53:00,2.0,-2.0,-100.00,NW,315,0.0,0.0,82,-99.99,,,-99.99,,2013-03-22 09:53:00,
2013-03-22 05:01:00,1.0,-2.0,-100.00,NW,320,0.0,0.0,85,-99.99,,,-99.99,,2013-03-22 10:01:00,
2013-03-22 05:23:00,1.0,-2.0,-100.00,NW,320,0.0,0.0,85,-99.99,,,-99.99,,2013-03-22 10:23:00,
2013-03-22 05:33:00,1.0,-2.0,-100.00,NW,320,0.0,0.0,85,-99.99,,,-99.99,,2013-03-22 10:33:00,
2013-03-22 05:42:00,1.0,-2.0,-100.00,NW,320,0.0,0.0,85,-99.99,,,-99.99,,2013-03-22 10:42:00,
2013-03-22 05:52:00,1.0,-2.0,-100.00,NW,320,0.0,0.0,85,-99.99,,,-99.99,,2013-03-22 10:52:00,
2013-03-22 06:01:00,4.0,1.0,-100.00,NNE,15,0.0,0.0,88,-99.99,,,-99.99,,2013-03-22 11:01:00,
2013-03-22 06:22:00,4.0,1.0,-100.00,NNE,15,0.0,0.0,88,-99.99,,,-99.99,,2013-03-22 11:22:00,
2013-03-22 06:33:00,4.0,1.0,-100.00,NNE,15,0.0,0.0,88,-99.99,,,-99.99,,2013-03-22 11:33:00,
2013-03-22 06:42:00,4.0,1.0,-100.00,NNE,15,0.0,0.0,88,-99.99,,,-99.99,,2013-03-22 11:42:00,
2013-03-22 06:52:00,4.0,1.0,-100.00,NNE,15,0.0,0.0,88,-99.99,,,-99.99,,2013-03-22 11:52:00,
2013-03-22 07:01:00,4.0,1.0,-100.00,NW,320,0.0,0.0,89,-99.99,,,-99.99,,2013-03-22 12:01:00,
2013-03-22 07:22:00,4.0,1.0,-100.00,NW,320,0.0,0.0,89,-99.99,,,-99.99,,2013-03-22 12:22:00,
2013-03-22 07:32:00,4.0,1.0,-100.00,NW,320,0.0,0.0,89,-99.99,,,-99.99,,2013-03-22 12:32:00,
2013-03-22 07:42:00,4.0,1.0,-100.00,NW,320,0.0,0.0,89,-99.99,,,-99.99,,2013-03-22 12:42:00,
2013-03-22 07:52:00,4.0,1.0,-100.00,NW,320,0.0,0.0,89,-99.99,,,-99.99,,2013-03-22 12:52:00,
2013-03-22 08:01:00,6.0,3.0,-100.00,NNW,335,0.0,0.0,89,-99.99,,,-99.99,,2013-03-22 13:01:00,
2013-03-22 08:22:00,6.0,3.0,-100.00,NNW,335,0.0,0.0,89,-99.99,,,-99.99,,2013-03-22 13:22:00,
2013-03-22 08:32:00,6.0,3.0,-100.00,NNW,335,0.0,0.0,89,-99.99,,,-99.99,,2013-03-22 13:32:00,
2013-03-22 08:42:00,6.0,3.0,-100.00,NNW,335,0.0,0.0,89,-99.99,,,-99.99,,2013-03-22 13:42:00,
2013-03-22 08:52:00,6.0,3.0,-100.00,NNW,335,0.0,0.0,89,-99.99,,,-99.99,,2013-03-22 13:52:00,
2013-03-22 09:01:00,16.0,9.0,-100.00,NNW,345,0.0,0.0,72,-99.99,,,-99.99,,2013-03-22 14:01:00,
2013-03-22 09:22:00,16.0,9.0,-100.00,NNW,345,0.0,0.0,72,-99.99,,,-99.99,,2013-03-22 14:22:00,
2013-03-22 09:32:00,16.0,9.0,-100.00,NNW,345,0.0,0.0,72,-99.99,,,-99.99,,2013-03-22 14:32:00,
2013-03-22 09:43:00,16.0,9.0,-100.00,NNW,345,0.0,0.0,72,-99.99,,,-99.99,,2013-03-22 14:43:00,
2013-03-22 09:52:00,16.0,9.0,-100.00,NNW,345,0.0,0.0,72,-99.99,,,-99.99,,2013-03-22 14:52:00,
2013-03-22 10:01:00,23.0,10.0,-100.00,NNE,15,0.0,0.0,59,-99.99,,,-99.99,,2013-03-22 15:01:00,
2013-03-22 10:22:00,23.0,10.0,-100.00,NNE,15,0.0,0.0,59,-99.99,,,-99.99,,2013-03-22 15:22:00,
2013-03-22 10:33:00,23.0,10.0,-100.00,NNE,15,0.0,0.0,59,-99.99,,,-99.99,,2013-03-22 15:33:00,
2013-03-22 10:43:00,23.0,10.0,-100.00,NNE,15,0.0,0.0,59,-99.99,,,-99.99,,2013-03-22 15:43:00,
2013-03-22 10:53:00,23.0,10.0,-100.00,NNE,15,0.0,0.0,59,-99.99,,,-99.99,,2013-03-22 15:53:00,
2013-03-22 11:01:00,29.0,11.0,-100.00,NNE,15,0.0,0.0,47,-99.99,,,-99.99,,2013-03-22 16:01:00,
2013-03-22 11:23:00,29.0,11.0,-100.00,NNE,15,0.0,0.0,47,-99.99,,,-99.99,,2013-03-22 16:23:00,
2013-03-22 11:32:00,29.0,11.0,-100.00,NNE,15,0.0,0.0,47,-99.99,,,-99.99,,2013-03-22 16:32:00,
2013-03-22 11:42:00,29.0,11.0,-100.00,NNE,15,0.0,0.0,47,-99.99,,,-99.99,,2013-03-22 16:42:00,
2013-03-22 11:52:00,29.0,11.0,-100.00,NNE,15,0.0,0.0,47,-99.99,,,-99.99,,2013-03-22 16:52:00,
2013-03-22 12:01:00,27.0,7.0,-100.00,NW,305,0.0,0.0,43,-99.99,,,-99.99,,2013-03-22 17:01:00,
2013-03-22 12:23:00,27.0,7.0,-100.00,NW,305,0.0,0.0,43,-99.99,,,-99.99,,2013-03-22 17:23:00,
2013-03-22 12:33:00,27.0,7.0,-100.00,NW,305,0.0,0.0,43,-99.99,,,-99.99,,2013-03-22 17:33:00,
2013-03-22 12:42:00,27.0,7.0,-100.00,NW,305,0.0,0.0,43,-99.99,,,-99.99,,2013-03-22 17:42:00,
2013-03-22 12:53:00,27.0,7.0,-100.00,NW,305,0.0,0.0,43,-99.99,,,-99.99,,2013-03-22 17:53:00,
2013-03-22 13:01:00,30.0,9.0,-100.00,NNW,335,0.0,0.0,40,-99.99,,,-99.99,,2013-03-22 18:01:00,
2013-03-22 13:22:00,30.0,9.0,-100.00,NNW,335,0.0,0.0,40,-99.99,,,-99.99,,2013-03-22 18:22:00,
2013-03-22 13:33:00,30.0,9.0,-100.00,NNW,335,0.0,0.0,40,-99.99,,,-99.99,,2013-03-22 18:33:00,
2013-03-22 13:42:00,30.0,9.0,-100.00,NNW,335,0.0,0.0,40,-99.99,,,-99.99,,2013-03-22 18:42:00,
2013-03-22 13:52:00,30.0,9.0,-100.00,NNW,335,0.0,0.0,40,-99.99,,,-99.99,,2013-03-22 18:52:00,
2013-03-22 14:01:00,33.0,8.0,-100.00,SSW,195,0.0,0.0,35,-99.99,,,-99.99,,2013-03-22 19:01:00,
2013-03-22 14:22:00,33.0,8.0,-100.00,SSW,195,0.0,0.0,35,-99.99,,,-99.99,,2013-03-22 19:22:00,
2013-03-22 14:33:00,33.0,8.0,-100.00,SSW,195,0.0,0.0,35,-99.99,,,-99.99,,2013-03-22 19:33:00,
2013-03-22 14:43:00,33.0,8.0,-100.00,SSW,195,0.0,0.0,35,-99.99,,,-99.99,,2013-03-22 19:43:00,
2013-03-22 14:52:00,33.0,8.0,-100.00,SSW,195,0.0,0.0,35,-99.99,,,-99.99,,2013-03-22 19:52:00,
2013-03-22 15:01:00,32.0,8.0,-100.00,NW,315,0.0,0.0,35,-99.99,,,-99.99,,2013-03-22 20:01:00,
2013-03-22 15:22:00,32.0,8.0,-100.00,NW,315,0.0,0.0,35,-99.99,,,-99.99,,2013-03-22 20:22:00,
2013-03-22 15:32:00,32.0,8.0,-100.00,NW,315,0.0,0.0,35,-99.99,,,-99.99,,2013-03-22 20:32:00,
2013-03-22 15:43:00,32.0,8.0,-100.00,NW,315,0.0,0.0,35,-99.99,,,-99.99,,2013-03-22 20:43:00,
2013-03-22 15:52:00,32.0,8.0,-100.00,NW,315,0.0,0.0,35,-99.99,,,-99.99,,2013-03-22 20:52:00,
2013-03-22 16:01:00,32.0,7.0,-100.00,NW,310,0.0,0.0,35,-99.99,,,-99.99,,2013-03-22 21:01:00,
2013-03-22 16:22:00,32.0,7.0,-100.00,NW,310,0.0,0.0,35,-99.99,,,-99.99,,2013-03-22 21:22:00,
2013-03-22 16:33:00,32.0,7.0,-100.00,NW,310,0.0,0.0,35,-99.99,,,-99.99,,2013-03-22 21:33:00,
2013-03-22 16:43:00,32.0,7.0,-100.00,NW,310,0.0,0.0,35,-99.99,,,-99.99,,2013-03-22 21:43:00,
2013-03-22 16:53:00,32.0,7.0,-100.00,NW,310,0.0,0.0,35,-99.99,,,-99.99,,2013-03-22 21:53:00,
2013-03-22 17:01:00,33.0,9.0,-100.00,WSW,250,0.0,0.0,36,-99.99,,,-99.99,,2013-03-22 22:01:00,
2013-03-22 17:23:00,33.0,9.0,-100.00,WSW,250,0.0,0.0,36,-99.99,,,-99.99,,2013-03-22 22:23:00,
2013-03-22 17:32:00,33.0,9.0,-100.00,WSW,250,0.0,0.0,36,-99.99,,,-99.99,,2013-03-22 22:32:00,
2013-03-22 17:43:00,33.0,9.0,-100.00,WSW,250,0.0,0.0,36,-99.99,,,-99.99,,2013-03-22 22:43:00,
2013-03-22 17:53:00,33.0,9.0,-100.00,WSW,250,0.0,0.0,36,-99.99,,,-99.99,,2013-03-22 22:53:00,
2013-03-22 18:01:00,32.0,10.0,-100.00,West,265,0.0,0.0,40,-99.99,,,-99.99,,2013-03-22 23:01:00,
2013-03-22 18:22:00,32.0,10.0,-100.00,West,265,0.0,0.0,40,-99.99,,,-99.99,,2013-03-22 23:22:00,
2013-03-22 18:32:00,32.0,10.0,-100.00,West,265,0.0,0.0,40,-99.99,,,-99.99,,2013-03-22 23:32:00,
2013-03-22 18:42:00,32.0,10.0,-100.00,West,265,0.0,0.0,40,-99.99,,,-99.99,,2013-03-22 23:42:00,
2013-03-22 18:52:00,32.0,10.0,-100.00,West,265,0.0,0.0,40,-99.99,,,-99.99,,2013-03-22 23:52:00,
2013-03-22 19:01:00,30.0,10.0,-100.00,WNW,285,0.0,0.0,44,-99.99,,,-99.99,,2013-03-23 00:01:00,
2013-03-22 19:23:00,30.0,10.0,-100.00,WNW,285,0.0,0.0,44,-99.99,,,-99.99,,2013-03-23 00:23:00,
2013-03-22 19:33:00,30.0,10.0,-100.00,WNW,285,0.0,0.0,44,-99.99,,,-99.99,,2013-03-23 00:33:00,
2013-03-22 19:42:00,30.0,10.0,-100.00,WNW,285,0.0,0.0,44,-99.99,,,-99.99,,2013-03-23 00:42:00,
2013-03-22 19:52:00,30.0,10.0,-100.00,WNW,285,0.0,0.0,44,-99.99,,,-99.99,,2013-03-23 00:52:00,
2013-03-22 20:01:00,24.0,8.0,-100.00,NW,325,0.0,0.0,50,-99.99,,,-99.99,,2013-03-23 01:01:00,
2013-03-22 20:22:00,24.0,8.0,-100.00,NW,325,0.0,0.0,50,-99.99,,,-99.99,,2013-03-23 01:22:00,
2013-03-22 20:32:00,24.0,8.0,-100.00,NW,325,0.0,0.0,50,-99.99,,,-99.99,,2013-03-23 01:32:00,
2013-03-22 20:43:00,24.0,8.0,-100.00,NW,325,0.0,0.0,50,-99.99,,,-99.99,,2013-03-23 01:43:00,
2013-03-22 20:52:00,24.0,8.0,-100.00,NW,325,0.0,0.0,50,-99.99,,,-99.99,,2013-03-23 01:52:00,
2013-03-22 21:01:00,22.0,10.0,-100.00,North,0,0.0,0.0,58,-99.99,,,-99.99,,2013-03-23 02:01:00,
2013-03-22 21:22:00,22.0,10.0,-100.00,North,0,0.0,0.0,58,-99.99,,,-99.99,,2013-03-23 02:22:00,
2013-03-22 21:32:00,22.0,10.0,-100.00,North,0,0.0,0.0,58,-99.99,,,-99.99,,2013-03-23 02:32:00,
2013-03-22 21:42:00,22.0,10.0,-100.00,North,0,0.0,0.0,58,-99.99,,,-99.99,,2013-03-23 02:42:00,
2013-03-22 21:52:00,22.0,10.0,-100.00,North,0,0.0,0.0,58,-99.99,,,-99.99,,2013-03-23 02:52:00,
2013-03-22 22:01:00,19.0,9.0,-100.00,ENE,75,0.0,0.0,66,-99.99,,,-99.99,,2013-03-23 03:01:00,
2013-03-22 22:23:00,19.0,9.0,-100.00,ENE,75,0.0,0.0,66,-99.99,,,-99.99,,2013-03-23 03:23:00,
2013-03-22 22:33:00,19.0,9.0,-100.00,ENE,75,0.0,0.0,66,-99.99,,,-99.99,,2013-03-23 03:33:00,
2013-03-22 22:43:00,19.0,9.0,-100.00,ENE,75,0.0,0.0,66,-99.99,,,-99.99,,2013-03-23 03:43:00,
2013-03-22 22:53:00,19.0,9.0,-100.00,ENE,75,0.0,0.0,66,-99.99,,,-99.99,,2013-03-23 03:53:00,
2013-03-22 23:01:00,13.0,6.0,-100.00,NW,325,0.0,0.0,73,-99.99,,,-99.99,,2013-03-23 04:01:00,
2013-03-22 23:23:00,13.0,6.0,-100.00,NW,325,0.0,0.0,73,-99.99,,,-99.99,,2013-03-23 04:23:00,
2013-03-22 23:33:00,13.0,6.0,-100.00,NW,325,0.0,0.0,73,-99.99,,,-99.99,,2013-03-23 04:33:00,
2013-03-22 23:43:00,13.0,6.0,-100.00,NW,325,0.0,0.0,73,-99.99,,,-99.99,,2013-03-23 04:43:00,
2013-03-22 23:53:00,13.0,6.0,-100.00,NW,325,0.0,0.0,73,-99.99,,,-99.99,,2013-03-23 04:53:00,